Location: Gwatt
(46.7204°N, 7.6223°E)
Time: 11:07:00
(UTC+00:00)

SJ-6B - Pass Details

Date: 18 September 2020
Orbit: 511 x 580 km, 97.6° (Epoch: 24 October)

Event Time Altitude Azimuth Distance (km) Brightness Sun altitude
Exits shadow 19:21:22 27° 174° (S) 1,004 3.9 -18.6°
Maximum altitude 19:23:18 78° 257° (WSW) 530 2.7 -18.9°
Drops below altitude 10° 19:27:04 10° 344° (NNW) 1,753 5.9 -19.5°
Sets 19:29:11 0° 346° (NNW) 2,651 6.9 -19.8°
